Location: Gleizolles
(44.4833°N, 6.7667°E)
Time: 15:36:57
(UTC+00:00)

Tiros 1 - Pass Details

Date: 28 June 2024
Orbit: 624 x 656 km, 48.4° (Epoch: 13 July)

Event Time Altitude Azimuth Distance (km) Brightness Sun altitude
Rises 01:04:23 0° 286° (WNW) 2,906 10.5 -19.3°
Reaches altitude 10° 01:06:44 10° 291° (WNW) 2,001 9.7 -19.2°
Maximum altitude 01:11:16 58° 11° (N) 734 7.7 -18.9°
Drops below altitude 10° 01:15:50 10° 91° (E) 2,012 10.0 -18.5°
Sets 01:18:12 0° 95° (E) 2,925 10.8 -18.4°
